Saint Johns, AZ

6:09 AM MST on February 10, 2016 (GMT -0700)
Saint Johns Industrial

Weather History for KSJN - January, 2013

Change the Weather History Date:

Saturday, January 26, 2013

  Actual Average (KSOW) Record (KSOW)
Temperature  
Mean Temperature 42 °F -  
Max Temperature 48 °F 44 °F 62 °F (1998)
Min Temperature 37 °F 28 °F -5 °F (1966)
Degree Days  
Heating Degree Days 22    
Moisture  
Dew Point 41 °F    
Average Humidity 84    
Maximum Humidity 100    
Minimum Humidity 53    
Precipitation  
Precipitation 0.63 in - - ()
Sea Level Pressure  
Sea Level Pressure 29.89 in    
Wind  
Wind Speed 6 mph (WSW)    
Max Wind Speed 26 mph    
Max Gust Speed 37 mph    
Visibility 8 miles    
Events Rain , Thunderstorm    
Averages and records for this station are not official NWS values.
T = Trace of Precipitation, MM = Missing Value Source: NWS Daily Summary

Daily Weather History Graph

Daily Weather History Graph

Search for Another Location

Airport or City:

Trip Planner

Search our weather history database for the weather conditions in past years. The results will help you decide how hot, cold, wet, or windy it might be!

Date:

Astronomy

Jan. 26, 2013 Rise Set
Actual Time 7:19 AM MST 5:41 PM MST
Civil Twilight 6:52 AM MST 6:08 PM MST
Nautical Twilight 6:22 AM MST 6:38 PM MST
Astronomical Twilight 5:52 AM MST 7:08 PM MST
Moon 5:37 PM MST (1/26) 6:40 AM MST (1/26)
Length of Visible Light 11h 15m
Length of Day
10h 22m
Full, 100% of the Moon is Illuminated
Jan 26
Full
Jan 26
Full
Feb 3
Last Quarter
Feb 10
New
Feb 17
First Quarter

Hourly Weather History & Observations

Time (MST) Temp. Windchill Dew Point Humidity Pressure Visibility Wind Dir Wind Speed Gust Speed Precip Events Conditions
12:54 AM 46.9 °F - 44.1 °F 90% 29.99 in 10.0 mi ESE 3.5 mph - 0.01 in   Overcast
1:54 AM 46.0 °F - 43.0 °F 89% 29.96 in 10.0 mi Calm Calm - N/A   Overcast
2:54 AM 46.0 °F 43.9 °F 43.0 °F 89% 29.92 in 10.0 mi NNE 4.6 mph - N/A   Overcast
3:54 AM 44.1 °F - 43.0 °F 96% 29.91 in 10.0 mi Calm Calm - N/A   Overcast
4:54 AM 44.1 °F 40.1 °F 43.0 °F 96% 29.91 in 10.0 mi West 6.9 mph - N/A   Overcast
5:54 AM 44.1 °F - 42.1 °F 93% 29.89 in 10.0 mi Calm Calm - N/A   Mostly Cloudy
6:54 AM 42.1 °F - 41.0 °F 96% 29.89 in 2.5 mi Calm Calm - N/A   Mostly Cloudy
7:09 AM 42.8 °F - 41.0 °F 93% 30.00 in 3.0 mi Calm Calm - N/A   Mostly Cloudy
7:32 AM 42.8 °F - 41.0 °F 93% 30.00 in 1.2 mi Calm Calm - N/A   Scattered Clouds
7:40 AM 41.0 °F - 39.2 °F 93% 30.00 in 0.8 mi Calm Calm - N/A   Scattered Clouds
7:44 AM 42.8 °F - 41.0 °F 93% 30.00 in 2.0 mi Calm Calm - N/A   Scattered Clouds
7:54 AM 42.1 °F - 41.0 °F 96% 29.90 in 3.0 mi Calm Calm - N/A   Mostly Cloudy
8:54 AM 44.1 °F - 43.0 °F 96% 29.88 in 6.0 mi Calm Calm - N/A   Overcast
9:54 AM 46.0 °F 44.8 °F 44.1 °F 93% 29.88 in 10.0 mi NW 3.5 mph - N/A   Overcast
10:54 AM 46.9 °F - 44.1 °F 90% 29.87 in 10.0 mi NNW 5.8 mph - 0.01 in Rain Light Rain
11:54 AM 48.0 °F - 45.0 °F 89% 29.85 in 10.0 mi North 5.8 mph - 0.01 in   Mostly Cloudy
12:54 PM 53.1 °F - 46.9 °F 80% 29.77 in 10.0 mi North 5.8 mph - N/A   Overcast
1:37 PM 50.0 °F - 44.6 °F 82% 29.95 in 6.0 mi SSW 26.5 mph 35.7 mph 0.01 in Rain , Thunderstorm Rain
1:52 PM 48.2 °F - 41.0 °F 76% 29.94 in 10.0 mi SW 18.4 mph 28.8 mph 0.01 in Rain , Thunderstorm Light Rain
1:54 PM 48.9 °F - 42.1 °F 77% 29.82 in 10.0 mi SW 17.3 mph 26.5 mph 0.01 in Rain , Thunderstorm Light Rain
2:07 PM 48.2 °F - 39.2 °F 71% 29.94 in 10.0 mi SSW 25.3 mph 36.8 mph 0.00 in   Overcast
2:54 PM 50.0 °F - 41.0 °F 71% 29.79 in 10.0 mi SW 15.0 mph - 0.00 in   Mostly Cloudy
3:54 PM 54.0 °F - 37.0 °F 53% 29.79 in 10.0 mi SW 21.9 mph 32.2 mph N/A   Partly Cloudy
4:54 PM 51.1 °F - 37.9 °F 61% 29.80 in 10.0 mi SSW 15.0 mph 28.8 mph N/A   Scattered Clouds
5:54 PM 48.9 °F - 37.9 °F 66% 29.81 in 10.0 mi SSW 12.7 mph - N/A   Scattered Clouds
6:54 PM 48.9 °F - 37.9 °F 66% 29.84 in 10.0 mi SSW 11.5 mph 23.0 mph N/A   Overcast
7:54 PM 46.9 °F - 37.9 °F 71% 29.86 in 10.0 mi Calm Calm - N/A   Overcast
8:54 PM 46.9 °F - 39.0 °F 74% 29.86 in 10.0 mi West 6.9 mph - N/A   Overcast
9:54 PM 46.0 °F 41.0 °F 37.9 °F 73% 29.86 in 10.0 mi WSW 10.4 mph - N/A   Partly Cloudy
10:54 PM 46.9 °F - 37.0 °F 68% 29.86 in 10.0 mi WSW 13.8 mph - N/A   Scattered Clouds
11:54 PM 45.0 °F 40.1 °F 36.0 °F 71% 29.88 in 10.0 mi WSW 9.2 mph - N/A   Overcast